Weather History for Skagway, AK

Change the Weather History Date:

Sunday, January 6, 2013

  Actual Average Record
Temperature  
Mean Temperature 34 °F -  
Max Temperature 39 °F 27 °F 45 °F (2002)
Min Temperature 30 °F 20 °F -6 °F (1966)
Degree Days  
Heating Degree Days 30    
Moisture  
Dew Point 32 °F    
Average Humidity 80    
Maximum Humidity 89    
Minimum Humidity 70    
Precipitation  
Precipitation 0.02 in - - ()
Sea Level Pressure  
Sea Level Pressure 29.60 in    
Wind  
Wind Speed 12 mph (South)    
Max Wind Speed 20 mph    
Max Gust Speed 30 mph    
Visibility 10 miles    
Events Snow    
Averages and records for this station are not official NWS values.
T = Trace of Precipitation, MM = Missing Value Source: NWS Daily Summary

Daily Weather History Graph

Daily Weather History Graph

Search for Another Location

Airport:

Trip Planner

Search our weather history database for the weather conditions in past years. The results will help you decide how hot, cold, wet, or windy it might be!

Date:

Astronomy

Jan. 06, 2013 Rise Set
Actual Time 8:54 AM AKST 3:20 PM AKST
Civil Twilight 8:01 AM AKST 4:13 PM AKST
Nautical Twilight 7:06 AM AKST 5:08 PM AKST
Astronomical Twilight 6:16 AM AKST 5:58 PM AKST
Moon 2:42 AM AKST (1/6) 11:22 AM AKST (1/6)
Length of Visible Light 8h 12m
Length of Day
6h 25m
Waning Crescent, 31% of the Moon is Illuminated
Jan 6
Waning Crescent
Jan 11
New
Jan 18
First Quarter
Jan 26
Full
Feb 3
Last Quarter

Hourly Weather History & Observations

Time (AKST) Temp. Windchill Dew Point Humidity Pressure Visibility Wind Dir Wind Speed Gust Speed Precip Events Conditions
12:53 AM 30.9 °F 26.2 °F 28.0 °F 89% 29.66 in 5.0 mi NNE 4.6 mph - 0.00 in Snow Light Snow
1:49 AM 37.4 °F 28.2 °F 33.8 °F 87% 29.65 in 10.0 mi SSW 16.1 mph 24.2 mph 0.00 in   Overcast
1:53 AM 37.0 °F 27.7 °F 33.1 °F 86% 29.65 in 10.0 mi SSW 16.1 mph 25.3 mph 0.01 in   Overcast
2:00 AM 37.4 °F 28.2 °F 33.8 °F 87% 29.66 in 10.0 mi SSW 16.1 mph 25.3 mph N/A   Overcast
2:53 AM 37.9 °F 27.9 °F 33.1 °F 83% 29.66 in 10.0 mi SSW 19.6 mph 29.9 mph 0.01 in   Overcast
3:53 AM 37.9 °F 28.5 °F 33.1 °F 83% 29.66 in 10.0 mi SSW 17.3 mph 24.2 mph N/A   Overcast
4:53 AM 37.9 °F 30.5 °F 33.1 °F 83% 29.65 in 10.0 mi SSW 11.5 mph 20.7 mph N/A   Overcast
5:53 AM 37.9 °F 29.6 °F 33.1 °F 83% 29.65 in 10.0 mi SSW 13.8 mph 20.7 mph N/A   Mostly Cloudy
6:53 AM 37.9 °F 30.0 °F 33.1 °F 83% 29.65 in 10.0 mi SSW 12.7 mph - N/A   Overcast
7:53 AM 37.9 °F 30.5 °F 33.1 °F 83% 29.64 in 10.0 mi SSW 11.5 mph 20.7 mph N/A   Overcast
8:53 AM 37.9 °F 28.9 °F 32.0 °F 79% 29.65 in 10.0 mi South 16.1 mph - N/A   Mostly Cloudy
9:53 AM 37.9 °F 30.0 °F 32.0 °F 79% 29.66 in 10.0 mi SSW 12.7 mph 20.7 mph N/A   Clear
10:53 AM 39.0 °F 31.0 °F 30.9 °F 73% 29.66 in 10.0 mi SSW 13.8 mph 23.0 mph N/A   Partly Cloudy
11:53 AM 39.0 °F 31.0 °F 30.9 °F 73% 29.66 in 10.0 mi SSW 13.8 mph 23.0 mph N/A   Mostly Cloudy
12:53 PM 39.0 °F 32.8 °F 30.9 °F 73% 29.63 in 10.0 mi SSW 9.2 mph 20.7 mph N/A   Overcast
1:53 PM 39.0 °F 31.0 °F 30.9 °F 73% 29.63 in 10.0 mi SSW 13.8 mph 21.9 mph N/A   Overcast
2:53 PM 39.0 °F 30.3 °F 30.9 °F 73% 29.62 in 10.0 mi SSW 16.1 mph 20.7 mph N/A   Overcast
3:53 PM 37.0 °F 33.3 °F 30.9 °F 79% 29.61 in 10.0 mi NE 4.6 mph - N/A   Overcast
4:53 PM 37.0 °F 30.4 °F 30.9 °F 79% 29.57 in 10.0 mi NE 9.2 mph - N/A   Overcast
6:53 PM 39.9 °F 31.8 °F 30.9 °F 70% 29.54 in 10.0 mi SSW 15.0 mph - N/A   Overcast
7:53 PM 39.0 °F 29.6 °F 30.9 °F 73% 29.52 in 10.0 mi SSW 18.4 mph 24.2 mph N/A   Overcast
8:53 PM 39.0 °F 34.8 °F 30.9 °F 73% 29.51 in 10.0 mi South 5.8 mph 20.7 mph N/A   Overcast
9:53 PM 36.0 °F 33.3 °F 30.0 °F 79% 29.48 in 10.0 mi East 3.5 mph - N/A   Overcast
10:53 PM 36.0 °F 33.3 °F 30.0 °F 79% 29.46 in 10.0 mi NNE 3.5 mph - N/A   Mostly Cloudy
11:01 PM 35.6 °F 30.7 °F 30.2 °F 81% 29.45 in 10.0 mi ENE 5.8 mph - N/A   Mostly Cloudy
11:53 PM 34.0 °F - 30.0 °F 85% 29.45 in 10.0 mi Calm Calm - N/A   Overcast